TimeMDT,TemperatureF,Dew PointF,Humidity,Sea Level PressureIn,VisibilityMPH,Wind Direction,Wind SpeedMPH,Gust SpeedMPH,PrecipitationIn,Events,Conditions,WindDirDegrees,DateUTC
12:15 AM,33.8,23.0,65,30.12,10.0,South,5.8,-,N/A,,Clear,170,2012-10-10 06:15:00
12:35 AM,33.8,21.2,60,30.11,10.0,South,10.4,-,N/A,,Clear,170,2012-10-10 06:35:00
12:55 AM,33.8,21.2,60,30.11,10.0,South,8.1,-,N/A,,Clear,180,2012-10-10 06:55:00
1:15 AM,33.8,23.0,65,30.11,10.0,SSW,6.9,-,N/A,,Clear,200,2012-10-10 07:15:00
1:35 AM,32.0,24.8,75,30.10,10.0,West,3.5,-,N/A,,Clear,260,2012-10-10 07:35:00
1:55 AM,33.8,26.6,75,30.10,10.0,SSW,6.9,-,N/A,,Clear,210,2012-10-10 07:55:00
2:15 AM,37.4,26.6,65,30.10,10.0,SSW,9.2,-,N/A,,Clear,210,2012-10-10 08:15:00
2:35 AM,35.6,24.8,65,30.09,10.0,South,4.6,-,N/A,,Clear,180,2012-10-10 08:35:00
2:55 AM,35.6,24.8,65,30.09,10.0,South,6.9,-,N/A,,Clear,190,2012-10-10 08:55:00
3:15 AM,35.6,26.6,70,30.08,10.0,SSW,5.8,-,N/A,,Clear,200,2012-10-10 09:15:00
3:35 AM,35.6,26.6,70,30.07,10.0,SSW,12.7,-,N/A,,Clear,210,2012-10-10 09:35:00
3:55 AM,37.4,26.6,65,30.06,10.0,SSW,11.5,-,N/A,,Clear,210,2012-10-10 09:55:00
4:15 AM,35.6,26.6,70,30.06,10.0,SSW,5.8,-,N/A,,Clear,210,2012-10-10 10:15:00
4:35 AM,35.6,26.6,70,30.05,10.0,SW,3.5,-,N/A,,Clear,230,2012-10-10 10:35:00
4:55 AM,35.6,26.6,70,30.04,10.0,North,4.6,-,N/A,,Clear,360,2012-10-10 10:55:00
5:15 AM,30.2,21.2,69,30.04,10.0,Calm,Calm,-,N/A,,Clear,0,2012-10-10 11:15:00
5:35 AM,30.2,23.0,75,30.04,5.0,NNE,4.6,-,N/A,,Clear,30,2012-10-10 11:35:00
5:55 AM,28.4,23.0,80,30.03,10.0,Calm,Calm,-,N/A,,Clear,0,2012-10-10 11:55:00
6:15 AM,30.2,24.8,80,30.03,10.0,Calm,Calm,-,N/A,,Clear,0,2012-10-10 12:15:00
6:35 AM,30.2,24.8,80,30.03,10.0,NE,3.5,-,N/A,,Clear,50,2012-10-10 12:35:00
6:55 AM,30.2,24.8,80,30.03,10.0,Calm,Calm,-,N/A,,Clear,0,2012-10-10 12:55:00
7:35 AM,28.4,24.8,86,30.03,10.0,Calm,Calm,-,N/A,,Clear,0,2012-10-10 13:35:00
7:55 AM,30.2,24.8,80,30.03,10.0,Calm,Calm,-,N/A,,Clear,0,2012-10-10 13:55:00
8:15 AM,30.2,24.8,80,30.03,10.0,West,5.8,-,N/A,,Clear,260,2012-10-10 14:15:00
8:55 AM,35.6,26.6,70,30.03,10.0,SSW,3.5,-,N/A,,Clear,200,2012-10-10 14:55:00
9:15 AM,37.4,26.6,65,30.03,10.0,Calm,Calm,-,N/A,,Clear,0,2012-10-10 15:15:00
9:35 AM,37.4,26.6,65,30.03,10.0,Calm,Calm,-,N/A,,Clear,0,2012-10-10 15:35:00
9:55 AM,42.8,28.4,57,30.03,10.0,Calm,Calm,-,N/A,,Clear,0,2012-10-10 15:55:00
10:15 AM,44.6,28.4,53,30.03,10.0,SSE,3.5,-,N/A,,Clear,160,2012-10-10 16:15:00
10:55 AM,50.0,28.4,43,30.01,10.0,Calm,Calm,-,N/A,,Clear,0,2012-10-10 16:55:00
11:15 AM,51.8,28.4,41,30.00,10.0,Calm,Calm,-,N/A,,Clear,0,2012-10-10 17:15:00
11:35 AM,53.6,30.2,41,29.99,10.0,North,4.6,-,N/A,,Clear,10,2012-10-10 17:35:00
11:55 AM,55.4,30.2,38,29.99,10.0,NNW,4.6,-,N/A,,Clear,340,2012-10-10 17:55:00
12:15 PM,57.2,30.2,36,29.98,10.0,NNW,6.9,-,N/A,,Clear,340,2012-10-10 18:15:00
12:35 PM,60.8,28.4,29,29.97,10.0,East,6.9,-,N/A,,Clear,90,2012-10-10 18:35:00
12:55 PM,62.6,26.6,26,29.96,10.0,East,5.8,-,N/A,,Clear,80,2012-10-10 18:55:00
1:15 PM,62.6,28.4,27,29.94,10.0,NE,9.2,-,N/A,,Clear,40,2012-10-10 19:15:00
1:35 PM,62.6,30.2,30,29.94,10.0,NNE,9.2,-,N/A,,Clear,30,2012-10-10 19:35:00
1:55 PM,62.6,30.2,30,29.93,10.0,NNE,10.4,-,N/A,,Clear,30,2012-10-10 19:55:00
2:35 PM,64.4,26.6,24,29.92,10.0,East,9.2,-,N/A,,Clear,100,2012-10-10 20:35:00
2:55 PM,64.4,26.6,24,29.91,10.0,ESE,6.9,-,N/A,,Clear,120,2012-10-10 20:55:00
3:15 PM,64.4,26.6,24,29.91,10.0,SE,4.6,-,N/A,,Clear,130,2012-10-10 21:15:00
3:35 PM,64.4,26.6,24,29.90,10.0,East,8.1,-,N/A,,Clear,100,2012-10-10 21:35:00
3:55 PM,64.4,26.6,24,29.90,10.0,East,3.5,-,N/A,,Clear,90,2012-10-10 21:55:00
4:15 PM,64.4,24.8,22,29.89,10.0,East,5.8,-,N/A,,Clear,90,2012-10-10 22:15:00
4:35 PM,66.2,24.8,21,29.89,10.0,SE,9.2,-,N/A,,Clear,140,2012-10-10 22:35:00
4:55 PM,66.2,24.8,21,29.89,10.0,SE,10.4,-,N/A,,Clear,130,2012-10-10 22:55:00
5:15 PM,64.4,24.8,22,29.90,10.0,SSE,11.5,-,N/A,,Clear,150,2012-10-10 23:15:00
5:35 PM,64.4,24.8,22,29.90,10.0,SE,8.1,-,N/A,,Clear,140,2012-10-10 23:35:00
5:55 PM,64.4,24.8,22,29.90,10.0,ESE,4.6,-,N/A,,Clear,110,2012-10-10 23:55:00
6:15 PM,59.0,26.6,29,29.91,10.0,NE,5.8,-,N/A,,Clear,40,2012-10-11 00:15:00
6:35 PM,55.4,26.6,33,29.92,10.0,North,6.9,-,N/A,,Clear,360,2012-10-11 00:35:00
6:55 PM,55.4,26.6,33,29.93,10.0,NW,5.8,-,N/A,,Clear,320,2012-10-11 00:55:00
7:15 PM,55.4,26.6,33,29.93,10.0,WNW,6.9,-,N/A,,Clear,300,2012-10-11 01:15:00
7:35 PM,53.6,26.6,35,29.93,10.0,WNW,5.8,-,N/A,,Clear,300,2012-10-11 01:35:00
7:55 PM,53.6,26.6,35,29.94,10.0,NW,5.8,-,N/A,,Clear,310,2012-10-11 01:55:00
8:15 PM,51.8,26.6,38,29.95,10.0,NW,4.6,-,N/A,,Clear,310,2012-10-11 02:15:00
8:35 PM,51.8,28.4,41,29.95,10.0,WNW,5.8,-,N/A,,Clear,300,2012-10-11 02:35:00
8:55 PM,50.0,26.6,40,29.95,10.0,Calm,Calm,-,N/A,,Clear,0,2012-10-11 02:55:00
9:15 PM,50.0,26.6,40,29.96,10.0,WNW,3.5,-,N/A,,Clear,300,2012-10-11 03:15:00
10:15 PM,46.4,28.4,50,30.00,10.0,NNE,12.7,16.1,N/A,,Clear,20,2012-10-11 04:15:00
10:35 PM,46.4,30.2,53,30.01,10.0,North,5.8,-,N/A,,Clear,350,2012-10-11 04:35:00
10:55 PM,48.2,33.8,58,30.02,10.0,North,13.8,-,N/A,,Clear,350,2012-10-11 04:55:00
11:15 PM,46.4,33.8,62,30.02,10.0,North,13.8,19.6,N/A,,Clear,360,2012-10-11 05:15:00
11:55 PM,44.6,33.8,66,30.03,10.0,NNW,11.5,16.1,N/A,,Clear,330,2012-10-11 05:55:00